Weather History for St. Johns, AZ

Change the Weather History Date:

Tuesday, September 17, 2013

  Actual Average (KSOW) Record (KSOW)
Temperature  
Mean Temperature 63 °F -  
Max Temperature 80 °F 74 °F 84 °F (1980)
Min Temperature 46 °F 54 °F 28 °F (1968)
Degree Days  
Heating Degree Days 2    
Growing Degree Days 13 (Base 50)    
Moisture  
Dew Point 50 °F    
Average Humidity 56    
Maximum Humidity 89    
Minimum Humidity 27    
Precipitation  
Precipitation 0.00 in - - ()
Sea Level Pressure  
Sea Level Pressure 29.84 in    
Wind  
Wind Speed 3 mph (SSW)    
Max Wind Speed 18 mph    
Max Gust Speed -    
Visibility 10 miles    
Events      
Averages and records for this station are not official NWS values.
T = Trace of Precipitation, MM = Missing Value Source: NWS Daily Summary

Daily Weather History Graph

Daily Weather History Graph

Search for Another Location

Airport:

Trip Planner

Search our weather history database for the weather conditions in past years. The results will help you decide how hot, cold, wet, or windy it might be!

Date:

Astronomy

Sep. 17, 2013 Rise Set
Actual Time 6:02 AM MST 6:20 PM MST
Civil Twilight 5:37 AM MST 6:46 PM MST
Nautical Twilight 5:07 AM MST 7:15 PM MST
Astronomical Twilight 4:37 AM MST 7:45 PM MST
Moon 5:08 PM MST (9/17) 4:03 AM MST (9/17)
Length of Visible Light 13h 09m
Length of Day
12h 18m
Waxing Gibbous, 96% of the Moon is Illuminated
Sep 17
Waxing Gibbous
Sep 19
Full
Sep 26
Last Quarter
Oct 4
New
Oct 11
First Quarter

Hourly Weather History & Observations

Time (MST) Temp. Dew Point Humidity Pressure Visibility Wind Dir Wind Speed Gust Speed Precip Events Conditions
12:54 AM 57.9 °F 51.1 °F 78% 29.91 in 10.0 mi Calm Calm - N/A   Clear
1:54 AM 55.9 °F 51.1 °F 84% 29.90 in 10.0 mi Calm Calm - N/A   Clear
2:54 AM 55.0 °F 50.0 °F 83% 29.88 in 10.0 mi West 3.5 mph - N/A   Clear
3:54 AM 55.0 °F 51.1 °F 86% 29.88 in 10.0 mi West 3.5 mph - N/A   Clear
4:54 AM 53.1 °F 50.0 °F 89% 29.91 in 10.0 mi West 4.6 mph - N/A   Clear
5:54 AM 54.0 °F 48.9 °F 83% 29.94 in 10.0 mi Calm Calm - N/A   Clear
6:54 AM 57.0 °F 51.1 °F 81% 29.94 in 10.0 mi West 3.5 mph - N/A   Clear
7:54 AM 64.0 °F 53.1 °F 67% 29.94 in 10.0 mi Calm Calm - N/A   Clear
8:54 AM 70.0 °F 55.0 °F 59% 29.91 in 10.0 mi Calm Calm - N/A   Clear
9:54 AM 73.9 °F 55.0 °F 52% 29.89 in 10.0 mi Calm Calm - N/A   Clear
10:54 AM 77.0 °F 52.0 °F 42% 29.87 in 10.0 mi Variable 4.6 mph - N/A   Clear
11:54 AM 80.1 °F 48.9 °F 34% 29.83 in 10.0 mi Variable 4.6 mph - N/A   Clear
12:54 PM 80.1 °F 44.1 °F 28% 29.82 in 10.0 mi Calm Calm - N/A   Clear
1:54 PM 82.9 °F 46.0 °F 27% 29.78 in 10.0 mi Variable 3.5 mph - N/A   Scattered Clouds
2:54 PM 82.9 °F 46.9 °F 28% 29.77 in 10.0 mi Variable 6.9 mph - N/A   Clear
3:54 PM 82.9 °F 46.9 °F 28% 29.75 in 10.0 mi SSW 8.1 mph - N/A   Scattered Clouds
4:54 PM 82.0 °F 46.0 °F 28% 29.75 in 10.0 mi SSW 3.5 mph - N/A   Scattered Clouds
5:54 PM 80.1 °F 46.0 °F 30% 29.75 in 10.0 mi WSW 11.5 mph - N/A   Scattered Clouds
6:54 PM 75.0 °F 48.0 °F 38% 29.76 in 10.0 mi SW 6.9 mph - N/A   Clear
7:54 PM 72.0 °F 48.9 °F 44% 29.77 in 10.0 mi South 10.4 mph - N/A   Clear
8:54 PM 68.0 °F 50.0 °F 52% 29.78 in 10.0 mi South 6.9 mph - N/A   Clear
9:54 PM 66.9 °F 52.0 °F 59% 29.78 in 10.0 mi SSE 4.6 mph - N/A   Clear
10:54 PM 68.0 °F 53.1 °F 59% 29.76 in 10.0 mi SSE 6.9 mph - N/A   Clear
11:54 PM 68.0 °F 53.1 °F 59% 29.75 in 10.0 mi SSE 10.4 mph - N/A   Clear